QPF
0.01 0.01 0.00 0.00 0.00 0.00 0.00 0.00 0.00 0.00 0.00 0.00 0.00 0.00 0.00 0.00 0.01 0.01 0.01 0.01 0.00 0.00 0.00 0.00 0.00 0.00 0.00 0.00 0.00 0.00 0.01 0.01 0.01 0.01 0.01 0.01 0.01 0.01 0.02 0.03 0.04 0.03 0.02 0.01
0.01 0.01 0.00 0.00 0.00 0.00 0.00 0.00 0.00 0.00 0.00 0.00 0.00 0.00 0.00 0.00 0.01 0.01 0.01 0.01 0.01 0.00 0.00 0.00 0.00 0.00 0.00 0.00 0.00 0.00 0.00 0.01 0.01 0.01 0.01 0.01 0.01 0.02 0.03 0.03 0.03 0.03 0.02 0.01
0.00 0.00 0.00 0.00 0.00 0.00 0.00 0.00 0.00 0.00 0.00 0.00 0.00 0.00 0.00 0.00 0.00 0.00 0.00 0.00 0.00 0.00 0.00 0.00 0.00 0.00 0.00 0.00 0.00 0.00 0.00 0.01 0.01 0.02 0.02 0.01 0.02 0.04 0.03 0.03 0.03 0.02 0.01 0.01
0.00 0.00 0.00 0.00 0.00 0.01 0.01 0.00 0.00 0.00 0.00 0.00 0.00 0.00 0.00 0.00 0.00 0.00 0.00 0.00 0.00 0.00 0.00 0.00 0.00 0.00 0.00 0.00 0.00 0.00 0.00 0.01 0.01 0.02 0.03 0.03 0.04 0.05 0.04 0.04 0.03 0.02 0.01 0.01
0.00 0.00 0.01 0.00 0.00 0.00 0.01 0.00 0.00 0.00 0.01 0.01 0.00 0.01 0.01 0.00 0.00 0.00 0.00 0.00 0.00 0.00 0.00 0.00 0.00 0.00 0.00 0.00 0.00 0.00 0.00 0.00 0.01 0.01 0.01 0.02 0.04 0.04 0.04 0.05 0.03 0.02 0.02 0.01
0.00 0.00 0.01 0.01 0.01 0.00 0.01 0.00 0.01 0.01 0.01 0.02 0.01 0.01 0.01 0.01 0.01 0.00 0.00 0.00 0.00 0.00 0.00 0.00 0.00 0.00 0.00 0.00 0.00 0.00 0.00 0.00 0.00 0.01 0.01 0.02 0.03 0.05 0.07 0.07 0.05 0.03 0.02 0.02
0.00 0.00 0.01 0.01 0.01 0.01 0.01 0.02 0.02 0.02 0.02 0.01 0.00 0.01 0.02 0.01 0.01 0.01 0.01 0.01 0.00 0.00 0.00 0.00 0.00 0.00 0.01 0.01 0.01 0.01 0.01 0.01 0.01 0.01 0.02 0.02 0.03 0.05 0.07 0.08 0.07 0.05 0.03 0.03
0.00 0.01 0.01 0.01 0.02 0.02 0.01 0.02 0.03 0.02 0.01 0.00 0.00 0.02 0.02 0.01 0.01 0.01 0.00 0.01 0.01 0.01 0.00 0.00 0.00 0.01 0.02 0.02 0.02 0.02 0.02 0.02 0.02 0.02 0.02 0.02 0.03 0.03 0.03 0.03 0.03 0.02 0.02 0.02
0.01 0.00 0.00 0.00 0.01 0.01 0.02 0.02 0.03 0.03 0.02 0.01 0.01 0.02 0.02 0.01 0.01 0.01 0.01 0.01 0.02 0.02 0.01 0.01 0.00 0.01 0.02 0.05 0.05 0.03 0.02 0.02 0.02 0.02 0.02 0.02 0.02 0.03 0.03 0.03 0.03 0.03 0.02 0.01
0.02 0.01 0.00 0.00 0.00 0.01 0.02 0.02 0.02 0.04 0.04 0.02 0.02 0.02 0.02 0.01 0.01 0.02 0.02 0.02 0.02 0.02 0.02 0.01 0.01 0.01 0.01 0.04 0.06 0.05 0.03 0.02 0.03 0.03 0.02 0.02 0.02 0.03 0.03 0.04 0.03 0.03 0.03 0.03
0.03 0.02 0.00 0.00 0.00 0.01 0.01 0.02 0.03 0.03 0.04 0.04 0.03 0.03 0.03 0.02 0.02 0.02 0.02 0.02 0.02 0.02 0.02 0.02 0.02 0.01 0.01 0.02 0.04 0.05 0.04 0.03 0.03 0.03 0.03 0.02 0.02 0.02 0.02 0.03 0.03 0.03 0.02 0.02
0.02 0.03 0.01 0.00 0.00 0.01 0.01 0.01 0.02 0.03 0.03 0.04 0.05 0.05 0.04 0.03 0.03 0.03 0.03 0.02 0.02 0.02 0.02 0.02 0.02 0.02 0.02 0.03 0.03 0.03 0.02 0.02 0.02 0.02 0.02 0.02 0.01 0.01 0.01 0.02 0.02 0.03 0.02 0.02
0.04 0.05 0.04 0.02 0.02 0.02 0.02 0.01 0.01 0.02 0.02 0.03 0.05 0.06 0.04 0.04 0.04 0.04 0.04 0.04 0.04 0.03 0.03 0.02 0.03 0.03 0.03 0.02 0.02 0.02 0.01 0.01 0.01 0.01 0.02 0.02 0.01 0.01 0.01 0.01 0.01 0.02 0.02 0.02
0.04 0.06 0.05 0.03 0.02 0.02 0.03 0.02 0.01 0.01 0.02 0.03 0.04 0.04 0.04 0.04 0.05 0.05 0.04 0.05 0.04 0.03 0.03 0.02 0.02 0.02 0.03 0.03 0.03 0.02 0.02 0.02 0.02 0.01 0.01 0.01 0.01 0.01 0.01 0.01 0.01 0.01 0.01 0.02
0.03 0.03 0.03 0.02 0.01 0.01 0.02 0.02 0.02 0.02 0.02 0.02 0.03 0.03 0.04 0.05 0.06 0.06 0.05 0.04 0.03 0.03 0.03 0.03 0.02 0.02 0.02 0.02 0.03 0.02 0.02 0.02 0.02 0.02 0.02 0.02 0.01 0.01 0.01 0.01 0.02 0.02 0.01 0.01
0.01 0.02 0.01 0.02 0.02 0.01 0.02 0.02 0.02 0.02 0.02 0.03 0.02 0.03 0.04 0.04 0.04 0.04 0.04 0.03 0.03 0.03 0.03 0.03 0.03 0.02 0.02 0.02 0.02 0.02 0.01 0.01 0.01 0.02 0.02 0.02 0.01 0.01 0.01 0.02 0.02 0.02 0.01 0.01
0.02 0.02 0.03 0.02 0.01 0.02 0.03 0.02 0.03 0.03 0.04 0.04 0.04 0.04 0.03 0.02 0.02 0.03 0.02 0.02 0.02 0.02 0.02 0.03 0.03 0.03 0.02 0.02 0.02 0.01 0.01 0.01 0.01 0.01 0.01 0.01 0.02 0.02 0.01 0.01 0.01 0.02 0.01 0.01
0.02 0.02 0.03 0.02 0.02 0.03 0.03 0.02 0.02 0.03 0.04 0.03 0.03 0.03 0.03 0.03 0.03 0.03 0.02 0.01 0.01 0.01 0.02 0.02 0.02 0.02 0.02 0.02 0.01 0.01 0.01 0.01 0.01 0.01 0.02 0.01 0.01 0.02 0.02 0.01 0.02 0.02 0.01 0.01
0.01 0.01 0.02 0.03 0.03 0.02 0.02 0.01 0.02 0.03 0.03 0.03 0.02 0.02 0.02 0.02 0.02 0.02 0.02 0.02 0.02 0.01 0.02 0.02 0.02 0.02 0.02 0.02 0.02 0.02 0.01 0.01 0.01 0.01 0.02 0.02 0.02 0.02 0.02 0.01 0.02 0.02 0.02 0.02
0.01 0.01 0.03 0.04 0.04 0.02 0.02 0.01 0.01 0.02 0.03 0.02 0.02 0.02 0.02 0.02 0.02 0.02 0.02 0.02 0.01 0.01 0.02 0.02 0.02 0.02 0.03 0.03 0.02 0.02 0.01 0.01 0.01 0.01 0.02 0.02 0.03 0.03 0.02 0.02 0.02 0.02 0.02 0.02
0.01 0.02 0.02 0.02 0.03 0.03 0.03 0.02 0.01 0.02 0.04 0.02 0.02 0.02 0.02 0.03 0.03 0.03 0.02 0.02 0.02 0.02 0.02 0.02 0.02 0.02 0.02 0.02 0.01 0.01 0.01 0.01 0.01 0.01 0.01 0.01 0.02 0.02 0.02 0.02 0.02 0.02 0.03 0.02
0.02 0.02 0.02 0.02 0.02 0.03 0.03 0.02 0.03 0.04 0.03 0.02 0.02 0.02 0.02 0.02 0.02 0.02 0.02 0.02 0.02 0.02 0.02 0.02 0.01 0.02 0.02 0.01 0.01 0.01 0.01 0.00 0.01 0.01 0.02 0.02 0.02 0.02 0.02 0.02 0.02 0.02 0.03 0.03
0.02 0.02 0.02 0.02 0.02 0.03 0.03 0.03 0.03 0.02 0.02 0.01 0.01 0.02 0.02 0.02 0.02 0.02 0.02 0.01 0.01 0.01 0.01 0.01 0.01 0.01 0.01 0.01 0.01 0.01 0.01 0.00 0.00 0.01 0.01 0.02 0.02 0.02 0.02 0.02 0.02 0.02 0.02 0.02
0.02 0.02 0.02 0.02 0.03 0.02 0.02 0.02 0.01 0.01 0.01 0.01 0.01 0.01 0.02 0.02 0.02 0.02 0.01 0.01 0.02 0.02 0.01 0.01 0.01 0.01 0.01 0.00 0.00 0.01 0.01 0.00 0.00 0.01 0.01 0.02 0.02 0.02 0.02 0.02 0.02 0.02 0.02 0.02
0.02 0.02 0.02 0.02 0.02 0.02 0.01 0.01 0.01 0.01 0.01 0.01 0.02 0.02 0.02 0.01 0.01 0.01 0.01 0.02 0.02 0.02 0.02 0.01 0.01 0.01 0.00 0.00 0.00 0.00 0.01 0.01 0.00 0.00 0.01 0.01 0.01 0.01 0.01 0.02 0.02 0.03 0.03 0.03
0.02 0.02 0.02 0.02 0.02 0.02 0.02 0.02 0.01 0.01 0.01 0.02 0.02 0.02 0.02 0.02 0.02 0.02 0.02 0.02 0.02 0.02 0.01 0.01 0.01 0.01 0.01 0.01 0.01 0.01 0.01 0.01 0.01 0.01 0.00 0.01 0.01 0.01 0.01 0.02 0.02 0.02 0.02 0.03
MSLP
1020.46 1020.95 1021.40 1021.80 1022.12 1022.36 1022.52 1022.61 1022.65 1022.64 1022.61 1022.57 1022.52 1022.46 1022.40 1022.34 1022.29 1022.24 1022.21 1022.21 1022.24 1022.31 1022.42 1022.54 1022.66 1022.74 1022.76 1022.69 1022.50 1022.21 1021.83 1021.40 1020.96 1020.54 1020.20 1019.93 1019.74 1019.61 1019.51 1019.40 1019.26 1019.08 1018.86 1018.63
1020.94 1021.31 1021.64 1021.92 1022.15 1022.33 1022.49 1022.62 1022.72 1022.80 1022.84 1022.83 1022.77 1022.66 1022.51 1022.33 1022.15 1022.00 1021.89 1021.85 1021.90 1022.03 1022.22 1022.44 1022.65 1022.81 1022.89 1022.87 1022.72 1022.47 1022.13 1021.75 1021.36 1021.01 1020.71 1020.48 1020.30 1020.15 1020.00 1019.83 1019.62 1019.37 1019.11 1018.86
1021.30 1021.55 1021.77 1021.96 1022.13 1022.31 1022.50 1022.70 1022.89 1023.05 1023.16 1023.18 1023.09 1022.91 1022.65 1022.33 1022.01 1021.74 1021.55 1021.48 1021.54 1021.72 1021.98 1022.29 1022.59 1022.84 1022.98 1023.00 1022.90 1022.70 1022.42 1022.10 1021.78 1021.50 1021.26 1021.07 1020.90 1020.74 1020.56 1020.33 1020.07 1019.77 1019.47 1019.21
1021.54 1021.70 1021.84 1021.97 1022.14 1022.36 1022.62 1022.92 1023.21 1023.46 1023.62 1023.63 1023.50 1023.21 1022.81 1022.34 1021.87 1021.47 1021.20 1021.09 1021.15 1021.37 1021.70 1022.08 1022.46 1022.77 1022.98 1023.06 1023.02 1022.88 1022.67 1022.43 1022.19 1021.99 1021.82 1021.67 1021.53 1021.37 1021.17 1020.91 1020.61 1020.29 1019.96 1019.68
1021.71 1021.81 1021.90 1022.04 1022.24 1022.53 1022.89 1023.30 1023.70 1024.01 1024.19 1024.17 1023.95 1023.53 1022.96 1022.32 1021.69 1021.16 1020.79 1020.64 1020.69 1020.94 1021.33 1021.78 1022.23 1022.61 1022.88 1023.02 1023.05 1022.98 1022.85 1022.70 1022.56 1022.44 1022.34 1022.25 1022.15 1022.00 1021.80 1021.54 1021.23 1020.89 1020.56 1020.25
1021.85 1021.91 1022.01 1022.17 1022.45 1022.83 1023.31 1023.82 1024.29 1024.64 1024.79 1024.70 1024.36 1023.78 1023.03 1022.21 1021.41 1020.75 1020.30 1020.09 1020.14 1020.41 1020.85 1021.36 1021.87 1022.32 1022.66 1022.87 1022.97 1022.99 1022.95 1022.89 1022.85 1022.82 1022.80 1022.78 1022.72 1022.61 1022.43 1022.19 1021.88 1021.55 1021.21 1020.91
1021.98 1022.04 1022.16 1022.39 1022.74 1023.22 1023.79 1024.37 1024.88 1025.22 1025.31 1025.11 1024.61 1023.85 1022.92 1021.92 1020.98 1020.21 1019.68 1019.44 1019.49 1019.79 1020.27 1020.83 1021.41 1021.92 1022.33 1022.62 1022.80 1022.90 1022.96 1023.01 1023.06 1023.12 1023.18 1023.23 1023.22 1023.16 1023.01 1022.80 1022.52 1022.21 1021.89 1021.58
1022.12 1022.19 1022.35 1022.64 1023.07 1023.63 1024.25 1024.86 1025.36 1025.63 1025.62 1025.28 1024.61 1023.68 1022.59 1021.44 1020.39 1019.53 1018.97 1018.72 1018.78 1019.11 1019.63 1020.25 1020.88 1021.45 1021.92 1022.29 1022.56 1022.75 1022.91 1023.05 1023.19 1023.34 1023.48 1023.59 1023.64 1023.62 1023.52 1023.34 1023.10 1022.82 1022.52 1022.22
1022.27 1022.36 1022.55 1022.89 1023.36 1023.95 1024.58 1025.17 1025.60 1025.77 1025.63 1025.14 1024.32 1023.24 1022.02 1020.78 1019.67 1018.79 1018.22 1018.00 1018.10 1018.47 1019.04 1019.70 1020.37 1021.00 1021.53 1021.96 1022.30 1022.58 1022.82 1023.05 1023.28 1023.51 1023.71 1023.87 1023.97 1023.98 1023.92 1023.77 1023.57 1023.32 1023.05 1022.76
1022.40 1022.50 1022.72 1023.07 1023.56 1024.13 1024.72 1025.23 1025.55 1025.59 1025.31 1024.68 1023.74 1022.57 1021.29 1020.04 1018.94 1018.09 1017.58 1017.42 1017.57 1018.00 1018.60 1019.30 1020.01 1020.66 1021.23 1021.71 1022.11 1022.45 1022.76 1023.07 1023.36 1023.64 1023.89 1024.08 1024.20 1024.24 1024.20 1024.08 1023.91 1023.69 1023.44 1023.18
1022.50 1022.61 1022.83 1023.16 1023.61 1024.12 1024.63 1025.02 1025.21 1025.13 1024.72 1024.00 1023.00 1021.82 1020.56 1019.37 1018.36 1017.62 1017.21 1017.14 1017.37 1017.85 1018.48 1019.19 1019.89 1020.55 1021.12 1021.62 1022.04 1022.42 1022.78 1023.13 1023.46 1023.77 1024.04 1024.24 1024.38 1024.42 1024.38 1024.27 1024.11 1023.91 1023.69 1023.45
1022.57 1022.68 1022.88 1023.18 1023.56 1023.97 1024.36 1024.62 1024.69 1024.49 1024.00 1023.24 1022.26 1021.14 1020.00 1018.95 1018.10 1017.53 1017.26 1017.30 1017.61 1018.12 1018.76 1019.45 1020.12 1020.73 1021.27 1021.74 1022.16 1022.54 1022.91 1023.27 1023.61 1023.93 1024.19 1024.39 1024.51 1024.54 1024.49 1024.37 1024.21 1024.02 1023.81 1023.59
1022.64 1022.73 1022.90 1023.14 1023.43 1023.74 1024.00 1024.14 1024.10 1023.83 1023.31 1022.58 1021.69 1020.71 1019.75 1018.92 1018.28 1017.90 1017.80 1017.96 1018.33 1018.86 1019.47 1020.10 1020.69 1021.22 1021.69 1022.10 1022.47 1022.82 1023.16 1023.50 1023.83 1024.12 1024.37 1024.54 1024.63 1024.64 1024.56 1024.42 1024.25 1024.05 1023.85 1023.64
1022.72 1022.80 1022.93 1023.10 1023.31 1023.51 1023.65 1023.69 1023.58 1023.28 1022.80 1022.16 1021.42 1020.64 1019.92 1019.33 1018.93 1018.76 1018.81 1019.07 1019.48 1020.00 1020.54 1021.08 1021.56 1021.98 1022.34 1022.65 1022.94 1023.23 1023.52 1023.81 1024.10 1024.36 1024.57 1024.71 1024.76 1024.73 1024.63 1024.47 1024.28 1024.07 1023.86 1023.65
1022.86 1022.93 1023.02 1023.13 1023.25 1023.36 1023.42 1023.39 1023.24 1022.96 1022.56 1022.05 1021.50 1020.96 1020.48 1020.15 1019.98 1019.99 1020.17 1020.50 1020.93 1021.39 1021.85 1022.27 1022.62 1022.91 1023.14 1023.34 1023.53 1023.73 1023.95 1024.18 1024.41 1024.62 1024.79 1024.89 1024.91 1024.85 1024.72 1024.54 1024.33 1024.11 1023.88 1023.66
1023.09 1023.14 1023.20 1023.25 1023.31 1023.35 1023.34 1023.28 1023.14 1022.91 1022.61 1022.26 1021.91 1021.59 1021.36 1021.24 1021.26 1021.42 1021.70 1022.06 1022.46 1022.86 1023.21 1023.50 1023.72 1023.86 1023.97 1024.05 1024.14 1024.25 1024.39 1024.56 1024.73 1024.89 1025.00 1025.07 1025.06 1024.98 1024.84 1024.65 1024.42 1024.18 1023.94 1023.70
1023.41 1023.46 1023.48 1023.50 1023.51 1023.50 1023.47 1023.39 1023.27 1023.12 1022.93 1022.73 1022.55 1022.43 1022.38 1022.44 1022.60 1022.85 1023.16 1023.52 1023.87 1024.18 1024.43 1024.60 1024.70 1024.74 1024.74 1024.72 1024.72 1024.75 1024.82 1024.91 1025.02 1025.12 1025.20 1025.23 1025.20 1025.11 1024.96 1024.77 1024.55 1024.30 1024.04 1023.77
1023.84 1023.88 1023.89 1023.88 1023.86 1023.82 1023.77 1023.71 1023.62 1023.53 1023.44 1023.36 1023.32 1023.33 1023.41 1023.56 1023.79 1024.07 1024.38 1024.70 1024.98 1025.21 1025.38 1025.46 1025.47 1025.43 1025.36 1025.29 1025.22 1025.19 1025.19 1025.22 1025.27 1025.32 1025.35 1025.35 1025.31 1025.21 1025.07 1024.89 1024.67 1024.42 1024.14 1023.84
1024.36 1024.40 1024.40 1024.38 1024.34 1024.30 1024.24 1024.19 1024.14 1024.09 1024.06 1024.06 1024.09 1024.17 1024.30 1024.49 1024.72 1024.98 1025.25 1025.50 1025.72 1025.89 1025.99 1026.03 1026.00 1025.93 1025.83 1025.72 1025.63 1025.55 1025.50 1025.48 1025.47 1025.46 1025.44 1025.41 1025.35 1025.26 1025.12 1024.95 1024.75 1024.50 1024.22 1023.90
1024.95 1025.00 1025.00 1024.98 1024.94 1024.90 1024.85 1024.81 1024.78 1024.76 1024.75 1024.77 1024.83 1024.91 1025.03 1025.19 1025.38 1025.58 1025.78 1025.97 1026.13 1026.25 1026.33 1026.35 1026.32 1026.26 1026.17 1026.07 1025.96 1025.86 1025.77 1025.69 1025.62 1025.55 1025.48 1025.41 1025.32 1025.22 1025.09 1024.93 1024.74 1024.50 1024.21 1023.88
1025.61 1025.67 1025.69 1025.69 1025.66 1025.62 1025.58 1025.55 1025.52 1025.50 1025.49 1025.50 1025.53 1025.57 1025.64 1025.73 1025.84 1025.96 1026.09 1026.21 1026.33 1026.42 1026.49 1026.53 1026.54 1026.51 1026.45 1026.37 1026.27 1026.15 1026.02 1025.88 1025.74 1025.60 1025.47 1025.34 1025.22 1025.09 1024.96 1024.80 1024.61 1024.39 1024.10 1023.76
1026.33 1026.42 1026.47 1026.49 1026.48 1026.46 1026.42 1026.38 1026.35 1026.31 1026.28 1026.25 1026.22 1026.21 1026.20 1026.20 1026.22 1026.26 1026.31 1026.38 1026.46 1026.54 1026.62 1026.69 1026.73 1026.75 1026.73 1026.67 1026.57 1026.43 1026.25 1026.05 1025.84 1025.62 1025.41 1025.22 1025.04 1024.88 1024.72 1024.56 1024.37 1024.15 1023.87 1023.53
1027.12 1027.25 1027.33 1027.38 1027.39 1027.38 1027.35 1027.31 1027.25 1027.19 1027.12 1027.05 1026.96 1026.88 1026.80 1026.72 1026.66 1026.62 1026.61 1026.63 1026.68 1026.75 1026.84 1026.92 1027.00 1027.04 1027.04 1026.98 1026.87 1026.69 1026.46 1026.19 1025.90 1025.60 1025.31 1025.04 1024.80 1024.59 1024.41 1024.22 1024.03 1023.80 1023.53 1023.19
1027.96 1028.13 1028.25 1028.33 1028.36 1028.36 1028.33 1028.27 1028.20 1028.11 1028.01 1027.89 1027.76 1027.62 1027.48 1027.34 1027.22 1027.13 1027.07 1027.04 1027.06 1027.11 1027.19 1027.27 1027.34 1027.38 1027.37 1027.30 1027.15 1026.92 1026.63 1026.29 1025.91 1025.53 1025.16 1024.82 1024.52 1024.26 1024.03 1023.82 1023.61 1023.37 1023.10 1022.76
1028.84 1029.05 1029.20 1029.29 1029.33 1029.33 1029.29 1029.22 1029.13 1029.02 1028.89 1028.74 1028.58 1028.41 1028.24 1028.07 1027.92 1027.79 1027.69 1027.64 1027.62 1027.63 1027.67 1027.72 1027.75 1027.75 1027.69 1027.56 1027.35 1027.06 1026.70 1026.29 1025.84 1025.39 1024.96 1024.56 1024.20 1023.89 1023.62 1023.38 1023.14 1022.89 1022.61 1022.28
1029.71 1029.94 1030.10 1030.20 1030.23 1030.21 1030.15 1030.06 1029.95 1029.82 1029.68 1029.52 1029.36 1029.19 1029.02 1028.85 1028.69 1028.55 1028.43 1028.34 1028.27 1028.23 1028.21 1028.18 1028.14 1028.05 1027.91 1027.70 1027.42 1027.06 1026.64 1026.17 1025.67 1025.17 1024.69 1024.24 1023.85 1023.50 1023.20 1022.93 1022.67 1022.40 1022.10 1021.77
Thickness
5580 5572 5570 5573 5572 5572 5566 5562 5560 5566 5570 5566 5565 5572 5580 5578 5575 5574 5573 5573 5574 5577 5579 5580 5581 5582 5583 5584 5585 5586 5586 5587 5587 5586 5586 5585 5585 5584 5585 5585 5586 5586 5587 5588
5563 5563 5568 5566 5563 5560 5556 5551 5551 5556 5558 5554 5552 5560 5570 5570 5568 5568 5568 5567 5567 5568 5569 5572 5572 5573 5574 5575 5576 5577 5578 5579 5580 5580 5579 5578 5577 5576 5576 5576 5577 5578 5579 5580
5555 5558 5559 5555 5551 5547 5545 5542 5543 5543 5543 5542 5540 5550 5559 5563 5561 5561 5561 5561 5560 5562 5563 5564 5564 5564 5564 5566 5567 5570 5570 5571 5572 5572 5571 5570 5569 5568 5568 5569 5569 5569 5571 5572
5541 5545 5544 5542 5538 5536 5535 5539 5536 5533 5524 5519 5526 5524 5549 5549 5551 5553 5551 5550 5551 5554 5555 5556 5556 5555 5556 5557 5558 5560 5561 5563 5563 5564 5563 5563 5562 5561 5561 5561 5560 5561 5562 5563
5529 5531 5530 5528 5529 5525 5525 5526 5523 5520 5512 5506 5510 5509 5531 5534 5540 5544 5543 5542 5542 5544 5545 5547 5547 5547 5547 5548 5548 5550 5552 5553 5554 5555 5555 5555 5554 5553 5553 5552 5552 5552 5553 5554
5516 5519 5518 5518 5520 5516 5513 5511 5507 5499 5495 5501 5506 5500 5516 5518 5528 5532 5534 5533 5532 5533 5534 5535 5536 5537 5537 5537 5538 5540 5542 5543 5545 5545 5546 5546 5546 5545 5544 5544 5544 5544 5544 5544
5502 5505 5506 5507 5505 5504 5501 5494 5489 5487 5483 5496 5500 5496 5507 5517 5518 5520 5522 5522 5520 5520 5522 5523 5525 5526 5526 5526 5528 5530 5532 5533 5534 5535 5536 5537 5537 5537 5537 5536 5536 5535 5535 5536
5479 5483 5492 5492 5492 5488 5489 5488 5481 5478 5477 5481 5484 5487 5499 5505 5507 5507 5508 5508 5509 5509 5510 5512 5513 5514 5514 5515 5517 5518 5521 5522 5523 5525 5525 5526 5527 5527 5527 5527 5527 5527 5527 5527
5459 5470 5479 5481 5481 5481 5477 5474 5476 5464 5459 5462 5471 5476 5485 5495 5495 5496 5496 5497 5498 5499 5499 5500 5501 5501 5502 5504 5505 5507 5509 5510 5511 5513 5514 5515 5516 5516 5516 5517 5517 5517 5518 5518
5444 5447 5462 5466 5470 5470 5468 5464 5455 5456 5458 5463 5469 5470 5475 5481 5484 5483 5483 5483 5484 5486 5487 5488 5488 5489 5489 5491 5493 5494 5497 5498 5499 5501 5503 5504 5504 5505 5506 5507 5507 5507 5508 5509
5432 5429 5442 5447 5451 5451 5451 5449 5448 5445 5448 5451 5454 5464 5468 5469 5470 5469 5470 5470 5470 5472 5474 5475 5476 5477 5477 5479 5481 5482 5484 5486 5487 5489 5491 5492 5493 5494 5495 5496 5496 5497 5498 5499
5418 5413 5418 5431 5440 5441 5441 5438 5434 5432 5432 5433 5440 5449 5458 5456 5455 5456 5456 5457 5459 5460 5461 5462 5463 5464 5465 5467 5468 5470 5472 5474 5475 5477 5479 5481 5482 5483 5484 5485 5486 5487 5488 5489
5408 5403 5406 5420 5426 5422 5421 5423 5422 5421 5419 5418 5425 5439 5444 5442 5443 5442 5443 5444 5446 5448 5449 5449 5449 5451 5453 5455 5456 5458 5460 5461 5463 5465 5467 5469 5470 5472 5473 5474 5475 5477 5477 5478
5402 5391 5394 5399 5405 5404 5404 5408 5409 5408 5405 5409 5419 5427 5430 5428 5429 5430 5430 5432 5433 5435 5437 5437 5437 5438 5441 5442 5444 5446 5447 5449 5451 5453 5455 5457 5458 5460 5461 5463 5464 5466 5467 5468
5384 5380 5383 5387 5393 5392 5393 5397 5399 5398 5399 5401 5410 5411 5413 5414 5415 5416 5417 5420 5422 5424 5425 5427 5427 5428 5429 5431 5432 5434 5435 5437 5439 5441 5443 5445 5446 5448 5450 5451 5453 5455 5456 5457
5369 5369 5372 5378 5386 5385 5385 5387 5388 5388 5388 5390 5396 5398 5400 5400 5402 5403 5405 5408 5410 5412 5414 5415 5416 5417 5418 5420 5421 5423 5424 5426 5428 5429 5431 5432 5434 5436 5438 5440 5441 5443 5444 5445
5356 5356 5358 5365 5372 5377 5372 5373 5375 5374 5372 5375 5377 5383 5384 5386 5390 5390 5392 5395 5398 5400 5402 5404 5404 5405 5407 5408 5410 5411 5413 5415 5416 5418 5420 5421 5422 5424 5426 5428 5430 5431 5432 5433
5348 5346 5344 5348 5355 5354 5363 5363 5365 5365 5363 5363 5365 5369 5369 5373 5376 5377 5379 5382 5385 5388 5391 5392 5393 5395 5396 5397 5398 5401 5403 5404 5406 5407 5408 5410 5411 5412 5414 5416 5417 5419 5420 5421
5342 5339 5332 5336 5337 5346 5353 5352 5349 5350 5353 5352 5353 5355 5358 5361 5367 5369 5370 5370 5373 5376 5379 5381 5382 5383 5384 5386 5388 5390 5391 5393 5394 5395 5397 5398 5400 5401 5403 5404 5406 5407 5409 5410
5332 5327 5323 5323 5330 5336 5337 5337 5339 5342 5341 5339 5340 5342 5344 5350 5354 5358 5359 5359 5362 5365 5367 5368 5370 5372 5373 5374 5376 5378 5379 5381 5382 5384 5386 5387 5389 5390 5391 5393 5394 5396 5398 5399
5317 5311 5308 5309 5312 5320 5320 5323 5332 5328 5326 5326 5326 5329 5331 5334 5335 5339 5344 5347 5350 5352 5355 5357 5359 5360 5361 5363 5365 5366 5367 5368 5370 5372 5374 5377 5378 5379 5380 5382 5383 5385 5386 5388
5305 5300 5298 5298 5299 5307 5309 5312 5310 5309 5311 5312 5314 5316 5319 5321 5324 5328 5331 5334 5338 5340 5343 5345 5347 5348 5349 5351 5353 5354 5355 5356 5358 5360 5363 5365 5366 5368 5370 5370 5372 5373 5374 5375
5295 5296 5293 5293 5297 5296 5296 5296 5297 5298 5299 5301 5302 5306 5308 5311 5313 5316 5319 5322 5324 5328 5330 5333 5334 5336 5337 5338 5340 5341 5342 5344 5346 5348 5350 5352 5354 5356 5357 5359 5360 5361 5362 5364
5284 5285 5284 5284 5288 5287 5287 5287 5288 5288 5289 5291 5292 5294 5297 5299 5302 5305 5308 5310 5313 5316 5318 5320 5322 5324 5325 5326 5328 5329 5331 5333 5335 5336 5338 5340 5342 5344 5345 5347 5349 5350 5351 5352
5277 5276 5274 5276 5278 5279 5282 5279 5279 5279 5280 5281 5283 5284 5286 5289 5292 5293 5296 5298 5301 5305 5307 5309 5310 5312 5313 5315 5316 5318 5320 5322 5323 5325 5326 5328 5331 5332 5334 5335 5336 5338 5340 5341
5267 5266 5267 5271 5272 5270 5272 5271 5270 5270 5271 5271 5273 5275 5276 5278 5281 5284 5286 5288 5291 5293 5296 5297 5299 5301 5302 5304 5305 5307 5309 5311 5312 5314 5315 5317 5319 5321 5322 5324 5325 5327 5329 5331